Hauptseite
METAR-TAF:

METAR-TAF

Flughäfen :

Hohenfels, Deutschland

Breite: 49-13N, Länge: 011-50E, Höhe: 442 m

Beobachtung

Neuester Wetterbericht von vor 58 Minuten, um 17:55 UTC
Wind 3 kt aus Südwest
Temperatur 19°C
Luftfeuchtigkeit 56%
Luftdruck 1005 hPa
Sichtweite 10 km oder mehr
Aufgelockert bewölkt in der Höhe von 7000 ft

METAR: ETIH 301755Z AUTO 22003KT 9999 SCT070 19/10 A2968 RMK AO2 SLP049 T01860102 10209 20180 53005

Zeit: 20:53 (18:53 UTC)


TAF: fehlend

Wetterbeobachtungen und Prognosen von mehr als 4000 Flughäfen (METAR und TAF Bericht).

Die verfügbaren Stationen werden durch gelbe und rote Markierungen auf der Karte dargestellt.

Führen Sie die Maus auf sie, um den Namen der Station zu sehen.

Darauf klicken, um die Beobachtung von Wetterbeobachtungen und Prognosen zu sehen.

Um die Karte zu ändern : klicken Sie auf den grünen Tasten mit einem schwarzen Kreuz Zum Vergrößern, auf den grünen Button mit einem Gedankenstrich zu verkleinern, oder auf die grünen Pfeile für benachbarte Karten.


METAR-TAF: